Hourly Data Report for October 06, 2016

All times are specified in Local Standard Time (LST). Add 1 hour to adjust for Daylight Saving Time where and when it is observed.

GJOA HAVEN A
NUNAVUT

68°38'08.000" N
95°51'01.000" W
46.90 m
2302337
71597
YHK

Download Data

Hourly Data (October 2016)
Hourly Data Report for October 6, 2016
Temp Definition
°C
Dew Point Temp Definition
°C
Rel Hum Definition
%
Wind Dir Definition
10's deg

Wind Spd Definition
km/h
Visibility Definition
km
Stn Press Definition
kPa
Hmdx Definition


Wind Chill Definition


Weather Definition


TIME
00:00 Legend Double Dagger -0.5 -0.5 100 28 17 16.1 101.68   -5 Snow
01:00 Legend Double Dagger -0.8 -0.9 99 28 18 16.1 101.67   -6 Snow
02:00 Legend Double Dagger -0.8 -0.9 99 28 15 16.1 101.64   -5 LegendNANA
03:00 Legend Double Dagger -0.7 -1.0 98 29 21 16.1 101.61   -6 Snow
04:00 Legend Double Dagger -1.9 -2.6 95 27 17 16.1 101.59   -7 LegendNANA
05:00 Legend Double Dagger -1.4 -2.4 93 24 21 16.1 101.55   -7 LegendNANA
06:00 Legend Double Dagger -1.2 -1.5 98 25 21 16.1 101.49   -7 LegendNANA
07:00 Legend Double Dagger -1.2 -1.9 95 27 22 9.7 101.45   -7 Snow
08:00 Legend Double Dagger -2.4 -3.6 91 29 15 16.1 101.43   -7 LegendNANA
09:00 Legend Double Dagger -1.7 -3.7 86 27 18 16.1 101.42   -7 LegendNANA
10:00 Legend Double Dagger -1.1 -1.9 94 25 22 16.1 101.38   -7 LegendNANA
11:00 Legend Double Dagger -1.5 -3.4 87 31 26 16.1 101.41   -8 LegendNANA
12:00 Legend Double Dagger -1.6 -3.4 87 30 28 16.1 101.44   -8 LegendNANA
13:00 Legend Double Dagger -1.5 -3.0 90 29 21 16.1 101.47   -7 LegendNANA
14:00 Legend Double Dagger -0.9 -2.0 92 28 21 16.1 101.45   -7 LegendNANA
15:00 Legend Double Dagger -0.6 -1.9 91 28 21 16.1 101.46   -6 Snow
16:00 Legend Double Dagger -0.8 -1.7 94 27 17 16.1 101.46   -6 LegendNANA
17:00 Legend Double Dagger -1.3 -2.0 95 28 15 16.1 101.48   -6 LegendNANA
18:00 Legend Double Dagger -1.7 -2.3 96 28 13 16.1 101.49   -6 LegendNANA
19:00 Legend Double Dagger -2.9 -3.3 97 28 13 16.1 101.49   -8 LegendNANA
20:00 Legend Double Dagger -2.3 -2.6 98 28 15 16.1 101.50   -7 LegendNANA
21:00 Legend Double Dagger -2.1 -2.4 98 29 13 16.1 101.49   -7 LegendNANA
22:00 Legend Double Dagger -1.8 -2.2 97 29 9 16.1 101.51   -5 LegendNANA
23:00 Legend Double Dagger -2.0 -2.4 97 31 15 16.1 101.50   -7 LegendNANA

Notes on Data Quality.

Legend

  • E = Estimated
  • M = Missing
  • NA = Not Available
  • ‡ = Partner data that is not subject to review by the National Climate Archives
Date modified: